Regional Weather Roundup
Issued by NWS

Home | Current Version | Previous Version | Graphics & Text | Print | Product List | Glossary On
Versions: 1 2 3 4 5 6 7 8 9 10 11 12 13 14 15 16 17 18 19 20 21 22 23 24 25 26 27 28 29 30 31 32 33 34 35 36 37 38 39 40 41 42 43 44 45 46 47 48 49 50
529
ASUS43 KFSD 160710
RWRSD

WEATHER ROUNDUP FOR SOUTH DAKOTA
NATIONAL WEATHER SERVICE SIOUX FALLS SD
200 AM CDT WED AUG 16 2017

NOTE: "FAIR" INDICATES FEW OR NO CLOUDS BELOW 12,000 FEET WITH NO
SIGNIFICANT WEATHER AND/OR OBSTRUCTIONS TO VISIBILITY.


SDZ001>005-009-010-012>017-160800-
NORTHWEST AND NORTH CENTRAL SOUTH DAKOTA

CITY           SKY/WX    TMP DP  RH WIND       PRES   REMARKS
BUFFALO          N/A     58  55  90 NW3       29.90S
FAITH            N/A     62  62 100 N13       29.90R
MOBRIDGE       CLOUDY    66  64  93 N7        29.82R
$$

SDZ012>016-024>037-041>051-057-063-072>074-160800-
SOUTHWEST AND SOUTH CENTRAL SOUTH DAKOTA

CITY           SKY/WX    TMP DP  RH WIND       PRES   REMARKS
RAPID CTY ARPT CLOUDY    60  55  83 NW9       29.95R
PIERRE         CLOUDY    67  65  93 S5        29.82R
CUSTER         CLOUDY    56  45  66 CALM      30.04R
ELLSWORTH AFB  CLOUDY    61  57  87 NW8       29.95R
PHILIP         CLOUDY    65  64  97 CALM      29.87R
PINE RIDGE     CLOUDY    63  63 100 CALM      29.95R
SPEARFISH      FAIR      55  52  88 W8        30.00S
WINNER         LGT RAIN  67  63  87 SW10      29.86R
$$

SDZ004>011-016>023-039-040-160800-
NORTHEAST SOUTH DAKOTA

CITY           SKY/WX    TMP DP  RH WIND       PRES   REMARKS
ABERDEEN       CLOUDY    65  64  97 S5        29.82F
WATERTOWN      CLOUDY    64  63  96 SE9       29.85F
BROOKINGS      CLOUDY    65  63  93 SE12      29.86F
SISSETON         N/A     65  63  93 SE9       29.84F
$$

SDZ017-020-022-023-036>040-048>070-160800-
SOUTHEAST SOUTH DAKOTA

CITY           SKY/WX    TMP DP  RH WIND       PRES   REMARKS
SIOUX FALLS    CLOUDY    67  66  97 SE8       29.87R
HURON          CLOUDY    66  65  96 S9        29.83R
CHAMBERLAIN    CLOUDY    67  67 100 SE12      29.85R
MITCHELL       RAIN      67  66  97 S7        29.86R FOG
YANKTON        LGT RAIN  66  64  93 SW10      29.88R
$$

ABBREVIATIONS USED IN REMARKS
   TC - TEMPERATURE IN CELSIUS
  WCI - WIND CHILL INDEX
   HX - HEAT INDEX
  VSB - VISIBILITY





USA.gov is the U.S. government's official web portal to all federal, state and local government web resources and services.